| time (UTC) | temp C | wind direction | speed KPH | gust KPH | rain 1hr cm | rain 24hr cm | rain mn cm | humidity % | barometer mb |
| 20260504185911 | 13 | 318 | 40.2 | 46.7 | 0.00 | 0.00 | 0.00 | 40 | 1003.9 |
| 20260504185409 | 13 | 306 | 32.2 | 38.6 | 0.00 | 0.00 | 0.00 | 40 | 1003.9 |
| 20260504184904 | 14 | 305 | 29.0 | 33.8 | 0.00 | 0.00 | 0.00 | 40 | 1003.9 |
| 20260504184400 | 15 | 323 | 41.8 | 51.5 | 0.00 | 0.00 | 0.00 | 39 | 1003.9 |
| 20260504183856 | 13 | 312 | 19.3 | 25.7 | 0.00 | 0.00 | 0.00 | 42 | 1003.9 |
| 20260504183354 | 14 | 321 | 32.2 | 33.8 | 0.00 | 0.00 | 0.00 | 39 | 1003.9 |
| 20260504182851 | 13 | 320 | 22.5 | 25.7 | 0.00 | 0.00 | 0.00 | 42 | 1003.9 |
| 20260504182349 | 12 | 328 | 22.5 | 35.4 | 0.00 | 0.00 | 0.00 | 42 | 1003.9 |
| 20260504181845 | 12 | 318 | 29.0 | 33.8 | 0.00 | 0.00 | 0.00 | 42 | 1003.9 |
| 20260504181343 | 12 | 326 | 27.4 | 37.0 | 0.00 | 0.00 | 0.00 | 43 | 1003.9 |
| 20260504180841 | 12 | 314 | 20.9 | 24.1 | 0.00 | 0.00 | 0.00 | 44 | 1003.9 |
| 20260504180339 | 13 | 319 | 16.1 | 17.7 | 0.00 | 0.00 | 0.00 | 44 | 1003.6 |
| 20260504175838 | 12 | 326 | 25.7 | 27.4 | 0.00 | 0.00 | 0.00 | 44 | 1003.6 |
| 20260504175334 | 13 | 351 | 32.2 | 35.4 | 0.00 | 0.00 | 0.00 | 43 | 1003.6 |
| 20260504174832 | 13 | 343 | 25.7 | 32.2 | 0.00 | 0.00 | 0.00 | 43 | 1003.6 |
| 20260504174329 | 13 | 324 | 32.2 | 37.0 | 0.00 | 0.00 | 0.00 | 42 | 1003.6 |
| 20260504173826 | 13 | 334 | 32.2 | 35.4 | 0.00 | 0.00 | 0.00 | 42 | 1003.2 |
| 20260504173323 | 14 | 328 | 37.0 | 46.7 | 0.00 | 0.00 | 0.00 | 41 | 1003.6 |
| 20260504172820 | 14 | 325 | 40.2 | 48.3 | 0.00 | 0.00 | 0.00 | 39 | 1003.6 |
| 20260504172316 | 14 | 299 | 30.6 | 33.8 | 0.00 | 0.00 | 0.00 | 39 | 1003.2 |
| 20260504171812 | 14 | 306 | 24.1 | 29.0 | 0.00 | 0.00 | 0.00 | 40 | 1002.9 |
| 20260504171310 | 14 | 336 | 27.4 | 33.8 | 0.00 | 0.00 | 0.00 | 40 | 1002.9 |
| 20260504170807 | 15 | 6 | 29.0 | 37.0 | 0.00 | 0.00 | 0.00 | 39 | 1002.9 |
| 20260504170304 | 14 | 321 | 35.4 | 40.2 | 0.00 | 0.00 | 0.00 | 38 | 1002.4 |
| 20260504160222 | 14 | 350 | 37.0 | 41.8 | 0.00 | 0.00 | 0.00 | 44 | 1002.1 |
| 20260504150653 | 14 | 347 | 25.7 | 32.2 | 0.00 | 0.00 | 0.00 | 50 | 1001.8 |
| 20260504150150 | 13 | 350 | 32.2 | 37.0 | 0.00 | 0.00 | 0.00 | 51 | 1001.8 |
| 20260504141119 | 13 | 297 | 32.2 | 38.6 | 0.00 | 0.00 | 0.00 | 50 | 1001.4 |
| 20260504140615 | 13 | 317 | 22.5 | 24.1 | 0.00 | 0.00 | 0.00 | 51 | 1001.4 |
| 20260504140111 | 13 | 341 | 25.7 | 33.8 | 0.00 | 0.00 | 0.00 | 51 | 1001.4 |
| 20260504130539 | 12 | 324 | 19.3 | 20.9 | 0.00 | 0.00 | 0.00 | 60 | 1001.1 |
| 20260504110427 | 13 | 298 | 8.0 | 9.7 | 0.00 | 0.00 | 0.00 | 52 | 998.6 |
| 20260504100343 | 15 | 263 | 6.4 | 8.0 | 0.00 | 0.00 | 0.00 | 44 | 997.6 |
| 20260504081737 | 16 | 239 | 3.2 | 3.2 | 0.00 | 0.00 | 0.00 | 37 | 999.0 |
| 20260504081233 | 16 | 278 | 3.2 | 4.8 | 0.00 | 0.00 | 0.00 | 37 | 999.0 |
| 20260504080730 | 16 | 244 | 3.2 | 3.2 | 0.00 | 0.00 | 0.00 | 37 | 999.0 |
| 20260504080226 | 16 | 264 | 4.8 | 4.8 | 0.00 | 0.00 | 0.00 | 37 | 999.3 |
| 20260504070154 | 15 | 217 | 4.8 | 4.8 | 0.00 | 0.00 | 0.00 | 39 | 1000.1 |
| 20260504060114 | 13 | 238 | 4.8 | 4.8 | 0.00 | 0.00 | 0.00 | 43 | 1001.8 |
| 20260504050542 | 13 | 222 | 3.2 | 3.2 | 0.00 | 0.00 | 0.00 | 40 | 1002.9 |
| 20260504045536 | 13 | 184 | 3.2 | 4.8 | 0.00 | 0.00 | 0.00 | 40 | 1002.9 |
| 20260504045032 | 13 | 281 | 1.6 | 1.6 | 0.00 | 0.00 | 0.00 | 39 | 1002.9 |
| 20260504044529 | 13 | 243 | 4.8 | 8.0 | 0.00 | 0.00 | 0.00 | 39 | 1003.2 |
| 20260504044026 | 13 | 265 | 1.6 | 1.6 | 0.00 | 0.00 | 0.00 | 40 | 1002.9 |
| 20260504043523 | 13 | 300 | 0.0 | 0.0 | 0.00 | 0.00 | 0.00 | 39 | 1003.2 |
| 20260504043020 | 13 | 285 | 1.6 | 3.2 | 0.00 | 0.00 | 0.00 | 39 | 1002.9 |
| 20260504042517 | 13 | 291 | 1.6 | 3.2 | 0.00 | 0.00 | 0.00 | 39 | 1003.6 |
| 20260504042014 | 13 | 270 | 3.2 | 3.2 | 0.00 | 0.00 | 0.00 | 39 | 1003.6 |
| 20260504041510 | 13 | 276 | 1.6 | 1.6 | 0.00 | 0.00 | 0.00 | 38 | 1003.6 |
| 20260504041006 | 14 | 264 | 3.2 | 3.2 | 0.00 | 0.00 | 0.00 | 37 | 1003.6 |
| 20260504040504 | 14 | 277 | 3.2 | 3.2 | 0.00 | 0.00 | 0.00 | 36 | 1003.6 |
| 20260504040000 | 15 | 246 | 3.2 | 3.2 | 0.00 | 0.00 | 0.00 | 36 | 1003.6 |
| 20260504035457 | 15 | 314 | 0.0 | 0.0 | 0.00 | 0.00 | 0.00 | 36 | 1003.6 |
| 20260504034953 | 15 | 203 | 1.6 | 3.2 | 0.00 | 0.00 | 0.00 | 36 | 1003.6 |
| 20260504034451 | 14 | 288 | 1.6 | 1.6 | 0.00 | 0.00 | 0.00 | 36 | 1003.9 |
| 20260504033948 | 15 | 304 | 0.0 | 0.0 | 0.00 | 0.00 | 0.00 | 36 | 1003.9 |
| 20260504033446 | 15 | 305 | 1.6 | 3.2 | 0.00 | 0.00 | 0.00 | 35 | 1004.2 |
| 20260504032943 | 15 | 296 | 1.6 | 3.2 | 0.00 | 0.00 | 0.00 | 34 | 1004.2 |
| 20260504032440 | 15 | 300 | 0.0 | 1.6 | 0.00 | 0.00 | 0.00 | 35 | 1004.6 |
| 20260504031937 | 15 | 287 | 1.6 | 1.6 | 0.00 | 0.00 | 0.00 | 34 | 1004.2 |
| 20260504031433 | 15 | 311 | 1.6 | 3.2 | 0.00 | 0.00 | 0.00 | 34 | 1004.2 |
| 20260504030930 | 15 | 322 | 0.0 | 0.0 | 0.00 | 0.00 | 0.00 | 34 | 1004.6 |
| 20260504030427 | 15 | 316 | 1.6 | 1.6 | 0.00 | 0.00 | 0.00 | 34 | 1004.6 |
| 20260504025923 | 15 | 319 | 0.0 | 0.0 | 0.00 | 0.00 | 0.00 | 34 | 1004.2 |
| 20260504025420 | 15 | 320 | 0.0 | 0.0 | 0.00 | 0.00 | 0.00 | 33 | 1004.6 |
| 20260504024917 | 16 | 316 | 0.0 | 1.6 | 0.00 | 0.00 | 0.00 | 33 | 1004.9 |
| 20260504024414 | 16 | 313 | 0.0 | 1.6 | 0.00 | 0.00 | 0.00 | 33 | 1004.6 |
| 20260504023911 | 16 | 308 | 1.6 | 1.6 | 0.00 | 0.00 | 0.00 | 33 | 1004.9 |
| 20260504023408 | 16 | 317 | 0.0 | 0.0 | 0.00 | 0.00 | 0.00 | 34 | 1004.9 |
| 20260504022903 | 16 | 315 | 0.0 | 0.0 | 0.00 | 0.00 | 0.00 | 34 | 1004.9 |
| 20260504022400 | 15 | 315 | 0.0 | 0.0 | 0.00 | 0.00 | 0.00 | 36 | 1004.6 |
| 20260504021856 | 15 | 321 | 0.0 | 0.0 | 0.00 | 0.00 | 0.00 | 36 | 1004.9 |
| 20260504021354 | 16 | 320 | 0.0 | 0.0 | 0.00 | 0.00 | 0.00 | 36 | 1004.6 |
| 20260504020851 | 16 | 313 | 1.6 | 1.6 | 0.00 | 0.00 | 0.00 | 36 | 1004.9 |
| 20260504020347 | 16 | 321 | 0.0 | 0.0 | 0.00 | 0.00 | 0.00 | 37 | 1005.2 |
| 20260504015843 | 16 | 307 | 0.0 | 1.6 | 0.00 | 0.00 | 0.00 | 36 | 1004.9 |
| 20260504015340 | 17 | 321 | 0.0 | 0.0 | 0.00 | 0.00 | 0.00 | 36 | 1004.6 |
| 20260504014836 | 17 | 320 | 0.0 | 0.0 | 0.00 | 0.00 | 0.00 | 35 | 1004.9 |
| 20260504014332 | 17 | 308 | 1.6 | 1.6 | 0.00 | 0.00 | 0.00 | 34 | 1004.9 |
| 20260504013830 | 17 | 314 | 0.0 | 0.0 | 0.00 | 0.00 | 0.00 | 34 | 1004.9 |
| 20260504013328 | 18 | 322 | 0.0 | 0.0 | 0.00 | 0.00 | 0.00 | 34 | 1005.2 |
| 20260504012824 | 18 | 320 | 0.0 | 0.0 | 0.00 | 0.00 | 0.00 | 33 | 1005.2 |
| 20260504012322 | 18 | 302 | 1.6 | 1.6 | 0.00 | 0.00 | 0.00 | 31 | 1004.9 |
| 20260504011819 | 19 | 304 | 1.6 | 1.6 | 0.00 | 0.00 | 0.00 | 30 | 1005.2 |
| 20260504011316 | 19 | 312 | 3.2 | 4.8 | 0.00 | 0.00 | 0.00 | 30 | 1004.9 |
| 20260504010811 | 20 | 341 | 1.6 | 3.2 | 0.00 | 0.00 | 0.00 | 29 | 1005.2 |
| 20260504010307 | 20 | 303 | 4.8 | 8.0 | 0.00 | 0.00 | 0.00 | 28 | 1004.9 |
| 20260504005804 | 20 | 317 | 1.6 | 3.2 | 0.00 | 0.00 | 0.00 | 29 | 1004.9 |
| 20260504005301 | 20 | 307 | 4.8 | 8.0 | 0.00 | 0.00 | 0.00 | 28 | 1004.9 |
| 20260504004759 | 20 | 319 | 4.8 | 4.8 | 0.00 | 0.00 | 0.00 | 27 | 1005.2 |
| 20260504004256 | 21 | 300 | 4.8 | 8.0 | 0.00 | 0.00 | 0.00 | 27 | 1005.2 |
| 20260504003752 | 21 | 313 | 1.6 | 3.2 | 0.00 | 0.00 | 0.00 | 27 | 1005.2 |
| 20260504003249 | 21 | 288 | 8.0 | 9.7 | 0.00 | 0.00 | 0.00 | 27 | 1005.2 |
| 20260504002746 | 21 | 303 | 1.6 | 1.6 | 0.00 | 0.00 | 0.00 | 26 | 1005.2 |
| 20260504002242 | 21 | 304 | 3.2 | 3.2 | 0.00 | 0.00 | 0.00 | 26 | 1005.6 |
| 20260504001741 | 21 | 285 | 3.2 | 3.2 | 0.00 | 0.00 | 0.00 | 27 | 1004.9 |
| 20260504001237 | 22 | 318 | 4.8 | 8.0 | 0.00 | 0.00 | 0.00 | 27 | 1005.6 |
| 20260504000734 | 22 | 318 | 1.6 | 3.2 | 0.00 | 0.00 | 0.00 | 27 | 1005.2 |
| 20260504000231 | 22 | 299 | 3.2 | 3.2 | 0.00 | 0.00 | 0.00 | 27 | 1005.6 |
| 20260503235729 | 22 | 325 | 4.8 | 4.8 | 0.00 | 0.00 | 0.00 | 27 | 1005.6 |
| 20260503235226 | 22 | 303 | 3.2 | 4.8 | 0.00 | 0.00 | 0.00 | 26 | 1005.6 |
| 20260503234724 | 22 | 286 | 4.8 | 4.8 | 0.00 | 0.00 | 0.00 | 26 | 1005.6 |
| 20260503234222 | 22 | 291 | 3.2 | 3.2 | 0.00 | 0.00 | 0.00 | 27 | 1005.6 |
| 20260503233718 | 22 | 323 | 8.0 | 11.3 | 0.00 | 0.00 | 0.00 | 25 | 1006.0 |
| 20260503233214 | 21 | 283 | 3.2 | 3.2 | 0.00 | 0.00 | 0.00 | 26 | 1005.6 |
| 20260503232711 | 21 | 297 | 14.5 | 16.1 | 0.00 | 0.00 | 0.00 | 26 | 1006.0 |
| 20260503232208 | 21 | 330 | 17.7 | 20.9 | 0.00 | 0.00 | 0.00 | 25 | 1006.0 |
| 20260503231707 | 22 | 289 | 4.8 | 9.7 | 0.00 | 0.00 | 0.00 | 28 | 1006.0 |
| 20260503231203 | 22 | 293 | 16.1 | 17.7 | 0.00 | 0.00 | 0.00 | 25 | 1006.4 |
| 20260503230659 | 22 | 314 | 14.5 | 17.7 | 0.00 | 0.00 | 0.00 | 25 | 1006.4 |
| 20260503230156 | 22 | 271 | 6.4 | 9.7 | 0.00 | 0.00 | 0.00 | 26 | 1006.0 |
| 20260503225654 | 22 | 309 | 6.4 | 9.7 | 0.00 | 0.00 | 0.00 | 28 | 1006.4 |
| 20260503225154 | 22 | 313 | 9.7 | 12.9 | 0.00 | 0.00 | 0.00 | 28 | 1006.4 |
| 20260503224651 | 22 | 294 | 6.4 | 8.0 | 0.00 | 0.00 | 0.00 | 28 | 1006.4 |
| 20260503224149 | 21 | 310 | 9.7 | 14.5 | 0.00 | 0.00 | 0.00 | 29 | 1006.4 |
| 20260503223647 | 21 | 320 | 16.1 | 17.7 | 0.00 | 0.00 | 0.00 | 30 | 1006.4 |
| 20260503223143 | 22 | 310 | 17.7 | 24.1 | 0.00 | 0.00 | 0.00 | 30 | 1006.4 |
| 20260503222640 | 21 | 314 | 20.9 | 24.1 | 0.00 | 0.00 | 0.00 | 29 | 1006.4 |
| 20260503222138 | 21 | 320 | 11.3 | 12.9 | 0.00 | 0.00 | 0.00 | 28 | 1006.7 |
| 20260503221636 | 22 | 329 | 17.7 | 20.9 | 0.00 | 0.00 | 0.00 | 28 | 1006.4 |
| 20260503221133 | 21 | 312 | 4.8 | 8.0 | 0.00 | 0.00 | 0.00 | 29 | 1006.4 |
| 20260503220630 | 21 | 299 | 17.7 | 17.7 | 0.00 | 0.00 | 0.00 | 27 | 1006.4 |
| 20260503220127 | 21 | 320 | 6.4 | 9.7 | 0.00 | 0.00 | 0.00 | 29 | 1006.4 |
| 20260503215624 | 21 | 319 | 17.7 | 20.9 | 0.00 | 0.00 | 0.00 | 28 | 1006.4 |
| 20260503215120 | 21 | 320 | 24.1 | 27.4 | 0.00 | 0.00 | 0.00 | 29 | 1006.4 |
| 20260503214619 | 21 | 314 | 17.7 | 20.9 | 0.00 | 0.00 | 0.00 | 28 | 1006.7 |
| 20260503214115 | 21 | 313 | 9.7 | 11.3 | 0.00 | 0.00 | 0.00 | 29 | 1006.7 |
| 20260503213614 | 21 | 321 | 14.5 | 16.1 | 0.00 | 0.00 | 0.00 | 29 | 1006.7 |
| 20260503213110 | 22 | 318 | 17.7 | 20.9 | 0.00 | 0.00 | 0.00 | 28 | 1007.0 |
| 20260503212608 | 21 | 314 | 6.4 | 9.7 | 0.00 | 0.00 | 0.00 | 28 | 1007.0 |
| 20260503212105 | 21 | 301 | 4.8 | 9.7 | 0.00 | 0.00 | 0.00 | 32 | 1007.0 |
| 20260503211602 | 21 | 320 | 16.1 | 20.9 | 0.00 | 0.00 | 0.00 | 35 | 1007.0 |
| 20260503211057 | 21 | 314 | 17.7 | 27.4 | 0.00 | 0.00 | 0.00 | 35 | 1007.0 |
| 20260503210554 | 21 | 308 | 22.5 | 25.7 | 0.00 | 0.00 | 0.00 | 34 | 1007.4 |
| 20260503210050 | 21 | 333 | 12.9 | 16.1 | 0.00 | 0.00 | 0.00 | 34 | 1007.4 |
| 20260503205547 | 21 | 301 | 17.7 | 20.9 | 0.00 | 0.00 | 0.00 | 34 | 1007.7 |
| 20260503205043 | 21 | 308 | 4.8 | 8.0 | 0.00 | 0.00 | 0.00 | 34 | 1007.4 |
| 20260503204540 | 20 | 322 | 17.7 | 22.5 | 0.00 | 0.00 | 0.00 | 35 | 1007.7 |
| 20260503204038 | 21 | 326 | 19.3 | 25.7 | 0.00 | 0.00 | 0.00 | 32 | 1007.7 |
| 20260503203535 | 21 | 333 | 9.7 | 11.3 | 0.00 | 0.00 | 0.00 | 35 | 1007.7 |
| 20260503203032 | 21 | 292 | 8.0 | 14.5 | 0.00 | 0.00 | 0.00 | 36 | 1007.7 |
| 20260503202530 | 20 | 323 | 12.9 | 14.5 | 0.00 | 0.00 | 0.00 | 33 | 1007.7 |
| 20260503202027 | 20 | 338 | 27.4 | 32.2 | 0.00 | 0.00 | 0.00 | 32 | 1007.7 |
| 20260503201525 | 20 | 307 | 12.9 | 14.5 | 0.00 | 0.00 | 0.00 | 36 | 1008.1 |
| 20260503201022 | 20 | 339 | 14.5 | 22.5 | 0.00 | 0.00 | 0.00 | 33 | 1008.1 |
| 20260503200518 | 20 | 304 | 14.5 | 16.1 | 0.00 | 0.00 | 0.00 | 32 | 1008.1 |
| 20260503200015 | 20 | 331 | 22.5 | 25.7 | 0.00 | 0.00 | 0.00 | 34 | 1008.4 |
| 20260503195513 | 20 | 313 | 27.4 | 32.2 | 0.00 | 0.00 | 0.00 | 33 | 1008.1 |
| 20260503195009 | 20 | 303 | 12.9 | 14.5 | 0.00 | 0.00 | 0.00 | 35 | 1008.4 |
| 20260503194507 | 20 | 313 | 11.3 | 12.9 | 0.00 | 0.00 | 0.00 | 35 | 1008.4 |
| 20260503194006 | 20 | 335 | 19.3 | 20.9 | 0.00 | 0.00 | 0.00 | 34 | 1008.4 |
| 20260503193503 | 20 | 312 | 19.3 | 24.1 | 0.00 | 0.00 | 0.00 | 33 | 1008.8 |
| 20260503192958 | 20 | 312 | 4.8 | 8.0 | 0.00 | 0.00 | 0.00 | 34 | 1008.8 |
| 20260503192454 | 20 | 334 | 12.9 | 14.5 | 0.00 | 0.00 | 0.00 | 34 | 1008.8 |
| 20260503191950 | 20 | 342 | 17.7 | 17.7 | 0.00 | 0.00 | 0.00 | 34 | 1008.8 |
| 20260503191448 | 19 | 323 | 11.3 | 14.5 | 0.00 | 0.00 | 0.00 | 37 | 1009.2 |
| 20260503190944 | 19 | 334 | 20.9 | 24.1 | 0.00 | 0.00 | 0.00 | 33 | 1009.2 |
| 20260503190442 | 19 | 326 | 12.9 | 14.5 | 0.00 | 0.00 | 0.00 | 34 | 1009.2 |